Time,TemperatureF,DewpointF,PressureIn,WindDirection,WindDirectionDegrees,WindSpeedMPH,WindSpeedGustMPH,Humidity,HourlyPrecipIn,Conditions,Clouds,dailyrainin,SoftwareType,DateUTC
2013-10-08 00:00:00,82.5,78.2,29.91,WNW,292,0.0,7.0,87,0.00,CLR,,0.00,WeatherDisplay:10.37,2013-10-08 04:00:00,
2013-10-08 00:05:00,82.8,77.5,29.90,WNW,292,5.0,9.0,84,0.00,CLR,,0.00,WeatherDisplay:10.37,2013-10-08 04:05:00,
2013-10-08 00:08:00,75.2,74.3,29.83,West,263,2.3,0.0,97,0.00,CLR,,0.00,WeatherDisplay:10.37,2013-10-08 04:08:00,
2013-10-08 00:10:00,83.3,78.0,29.90,WNW,292,6.0,11.0,84,0.00,CLR,,0.00,WeatherDisplay:10.37,2013-10-08 04:10:00,
2013-10-08 00:15:00,84.2,77.7,29.91,WNW,292,2.0,9.0,81,0.00,CLR,,0.00,WeatherDisplay:10.37,2013-10-08 04:15:00,
2013-10-08 00:20:00,84.7,77.8,29.90,WNW,286,3.0,10.0,80,0.00,CLR,,0.00,WeatherDisplay:10.37,2013-10-08 04:20:00,
2013-10-08 00:25:00,85.5,78.2,29.90,WNW,286,5.0,9.0,79,0.00,CLR,,0.00,WeatherDisplay:10.37,2013-10-08 04:25:00,
2013-10-08 00:28:00,75.2,74.3,29.83,West,263,2.3,0.0,97,0.00,CLR,,0.00,WeatherDisplay:10.37,2013-10-08 04:28:00,
2013-10-08 00:30:00,85.6,77.2,29.90,WNW,292,6.0,10.0,76,0.00,CLR,,0.00,WeatherDisplay:10.37,2013-10-08 04:30:00,
2013-10-08 00:35:00,85.2,76.8,29.91,WNW,292,2.0,5.0,76,0.00,CLR,,0.00,WeatherDisplay:10.37,2013-10-08 04:35:00,
2013-10-08 00:40:00,85.9,77.8,29.91,WNW,292,3.0,9.0,77,0.00,CLR,,0.00,WeatherDisplay:10.37,2013-10-08 04:40:00,
2013-10-08 00:45:00,86.0,76.3,29.91,WNW,282,5.0,10.0,73,0.00,CLR,,0.00,WeatherDisplay:10.37,2013-10-08 04:45:00,
2013-10-08 00:50:00,85.7,76.9,29.91,West,276,2.0,6.0,75,0.00,CLR,,0.00,WeatherDisplay:10.37,2013-10-08 04:50:00,
2013-10-08 00:55:00,86.3,77.4,29.91,West,270,3.0,6.0,75,0.00,CLR,,0.00,WeatherDisplay:10.37,2013-10-08 04:55:00,
2013-10-08 00:56:00,75.2,74.3,29.83,West,263,2.3,0.0,97,0.00,CLR,,0.00,WeatherDisplay:10.37,2013-10-08 04:56:00,
2013-10-08 01:00:00,86.6,76.9,29.91,West,276,5.0,10.0,73,0.00,CLR,,0.00,WeatherDisplay:10.37,2013-10-08 05:00:00,
2013-10-08 01:05:00,87.3,77.6,29.91,WNW,283,6.0,9.0,73,0.00,CLR,,0.00,WeatherDisplay:10.37,2013-10-08 05:05:00,
2013-10-08 01:10:00,87.9,77.3,29.91,WNW,292,3.0,10.0,71,0.00,CLR,,0.00,WeatherDisplay:10.37,2013-10-08 05:10:00,
2013-10-08 01:15:00,87.7,76.7,29.91,WNW,287,5.0,9.0,70,0.00,CLR,,0.00,WeatherDisplay:10.37,2013-10-08 05:15:00,
2013-10-08 01:16:00,75.2,74.3,29.83,West,263,2.3,0.0,97,0.00,CLR,,0.00,WeatherDisplay:10.37,2013-10-08 05:16:00,
2013-10-08 01:20:00,87.7,77.1,29.91,West,281,3.0,6.0,71,0.00,CLR,,0.00,WeatherDisplay:10.37,2013-10-08 05:20:00,
2013-10-08 01:25:00,75.2,74.3,29.83,West,263,2.3,0.0,97,0.00,CLR,,0.00,WeatherDisplay:10.37,2013-10-08 05:25:00,
2013-10-08 01:30:00,88.0,77.4,29.90,WSW,257,1.0,6.0,71,0.00,CLR,,0.00,WeatherDisplay:10.37,2013-10-08 05:30:00,
2013-10-08 01:35:00,88.6,77.1,29.90,West,275,3.0,11.0,69,0.00,CLR,,0.00,WeatherDisplay:10.37,2013-10-08 05:35:00,
2013-10-08 01:40:00,88.0,76.1,29.90,West,279,1.0,9.0,68,0.00,CLR,,0.00,WeatherDisplay:10.37,2013-10-08 05:40:00,
2013-10-08 01:45:00,88.4,77.4,29.90,West,280,5.0,10.0,70,0.00,CLR,,0.00,WeatherDisplay:10.37,2013-10-08 05:45:00,
2013-10-08 01:50:00,88.9,77.0,29.90,WNW,283,2.0,10.0,68,0.00,CLR,,0.00,WeatherDisplay:10.37,2013-10-08 05:50:00,
2013-10-08 01:55:00,89.3,76.9,29.90,West,274,3.0,10.0,67,0.00,CLR,,0.00,WeatherDisplay:10.37,2013-10-08 05:55:00,
2013-10-08 02:00:00,89.7,77.3,29.89,West,281,1.0,11.0,67,0.00,CLR,,0.00,WeatherDisplay:10.37,2013-10-08 06:00:00,
2013-10-08 02:05:00,89.6,76.7,29.89,WNW,287,2.0,11.0,66,0.00,CLR,,0.00,WeatherDisplay:10.37,2013-10-08 06:05:00,
2013-10-08 02:10:00,90.2,77.3,29.89,WNW,282,2.0,7.0,66,0.00,CLR,,0.00,WeatherDisplay:10.37,2013-10-08 06:10:00,
2013-10-08 02:15:00,90.9,78.0,29.89,West,281,3.0,9.0,66,0.00,CLR,,0.00,WeatherDisplay:10.37,2013-10-08 06:15:00,
2013-10-08 02:20:00,91.3,76.9,29.89,WNW,286,6.0,10.0,63,0.00,CLR,,0.00,WeatherDisplay:10.37,2013-10-08 06:20:00,
2013-10-08 02:25:00,91.1,77.2,29.89,WNW,289,3.0,7.0,64,0.00,CLR,,0.00,WeatherDisplay:10.37,2013-10-08 06:25:00,
2013-10-08 02:30:00,91.0,77.6,29.89,WNW,292,6.0,9.0,65,0.00,CLR,,0.00,WeatherDisplay:10.37,2013-10-08 06:30:00,
2013-10-08 02:35:00,90.5,76.7,29.89,WNW,290,3.0,9.0,64,0.00,CLR,,0.00,WeatherDisplay:10.37,2013-10-08 06:35:00,
2013-10-08 02:40:00,90.3,77.4,29.89,WNW,289,0.0,6.0,66,0.00,CLR,,0.00,WeatherDisplay:10.37,2013-10-08 06:40:00,
2013-10-08 02:45:00,90.2,76.8,29.89,WNW,292,3.0,6.0,65,0.00,CLR,,0.00,WeatherDisplay:10.37,2013-10-08 06:45:00,
2013-10-08 02:50:00,90.7,77.3,29.89,WNW,282,3.0,6.0,65,0.00,CLR,,0.00,WeatherDisplay:10.37,2013-10-08 06:50:00,
2013-10-08 02:55:00,91.4,77.0,29.88,West,281,3.0,6.0,63,0.00,CLR,,0.00,WeatherDisplay:10.37,2013-10-08 06:55:00,
2013-10-08 03:00:00,90.7,75.9,29.89,West,279,3.0,12.0,62,0.00,CLR,,0.00,WeatherDisplay:10.37,2013-10-08 07:00:00,
2013-10-08 03:05:00,90.0,76.6,29.89,West,273,0.0,10.0,65,0.00,CLR,,0.00,WeatherDisplay:10.37,2013-10-08 07:05:00,
2013-10-08 03:10:00,90.4,76.1,29.89,West,274,7.0,10.0,63,0.00,CLR,,0.00,WeatherDisplay:10.37,2013-10-08 07:10:00,
2013-10-08 03:15:00,90.5,76.2,29.88,West,273,7.0,13.0,63,0.00,CLR,,0.00,WeatherDisplay:10.37,2013-10-08 07:15:00,
2013-10-08 03:20:00,90.7,75.9,29.88,West,270,5.0,13.0,62,0.00,CLR,,0.00,WeatherDisplay:10.37,2013-10-08 07:20:00,
2013-10-08 03:25:00,91.4,77.0,29.88,West,268,2.0,8.0,63,0.00,CLR,,0.00,WeatherDisplay:10.37,2013-10-08 07:25:00,
2013-10-08 03:30:00,92.3,77.4,29.88,West,278,3.0,7.0,62,0.00,CLR,,0.00,WeatherDisplay:10.37,2013-10-08 07:30:00,
2013-10-08 03:35:00,92.4,76.5,29.88,West,279,3.0,12.0,60,0.00,CLR,,0.00,WeatherDisplay:10.37,2013-10-08 07:35:00,
2013-10-08 03:40:00,92.6,75.1,29.88,West,279,7.0,12.0,57,0.00,CLR,,0.00,WeatherDisplay:10.37,2013-10-08 07:40:00,
2013-10-08 03:45:00,92.7,76.3,29.87,West,281,5.0,10.0,59,0.00,CLR,,0.00,WeatherDisplay:10.37,2013-10-08 07:45:00,
2013-10-08 03:50:00,75.2,74.3,29.83,West,263,2.3,0.0,97,0.00,CLR,,0.00,WeatherDisplay:10.37,2013-10-08 07:50:00,
2013-10-08 03:55:00,94.0,75.9,29.87,West,275,6.0,10.0,56,0.00,CLR,,0.00,WeatherDisplay:10.37,2013-10-08 07:55:00,
2013-10-08 04:00:00,93.8,76.8,29.86,West,267,3.0,10.0,58,0.00,CLR,,0.00,WeatherDisplay:10.37,2013-10-08 08:00:00,
2013-10-08 04:05:00,94.1,76.5,29.86,West,264,0.0,6.0,57,0.00,CLR,,0.00,WeatherDisplay:10.37,2013-10-08 08:05:00,
2013-10-08 04:10:00,94.1,76.5,29.86,West,267,5.0,9.0,57,0.00,CLR,,0.00,WeatherDisplay:10.37,2013-10-08 08:10:00,
2013-10-08 04:15:00,93.7,76.2,29.86,West,263,3.0,10.0,57,0.00,CLR,,0.00,WeatherDisplay:10.37,2013-10-08 08:15:00,
2013-10-08 04:20:00,93.6,77.1,29.85,West,262,3.0,10.0,59,0.00,CLR,,0.00,WeatherDisplay:10.37,2013-10-08 08:20:00,
2013-10-08 04:25:00,94.3,76.2,29.85,West,270,3.0,7.0,56,0.00,CLR,,0.00,WeatherDisplay:10.37,2013-10-08 08:25:00,
2013-10-08 04:30:00,94.5,76.4,29.85,West,274,2.0,7.0,56,0.00,CLR,,0.00,WeatherDisplay:10.37,2013-10-08 08:30:00,
2013-10-08 04:35:00,94.4,76.3,29.85,WNW,286,2.0,10.0,56,0.00,CLR,,0.00,WeatherDisplay:10.37,2013-10-08 08:35:00,
2013-10-08 04:40:00,94.2,76.1,29.85,WNW,286,2.0,7.0,56,0.00,CLR,,0.00,WeatherDisplay:10.37,2013-10-08 08:40:00,
2013-10-08 04:41:00,75.2,74.3,29.83,West,263,2.3,0.0,97,0.00,CLR,,0.00,WeatherDisplay:10.37,2013-10-08 08:41:00,
2013-10-08 04:45:00,93.8,75.7,29.85,West,280,6.0,8.0,56,0.00,CLR,,0.00,WeatherDisplay:10.37,2013-10-08 08:45:00,
2013-10-08 04:50:00,92.6,75.7,29.85,West,275,3.0,7.0,58,0.00,CLR,,0.00,WeatherDisplay:10.37,2013-10-08 08:50:00,
2013-10-08 04:55:00,92.8,75.8,29.85,West,270,1.0,6.0,58,0.00,CLR,,0.00,WeatherDisplay:10.37,2013-10-08 08:55:00,
2013-10-08 05:00:00,92.9,75.4,29.85,West,270,0.0,5.0,57,0.00,CLR,,0.00,WeatherDisplay:10.37,2013-10-08 09:00:00,
2013-10-08 05:05:00,75.2,74.3,29.83,West,263,2.3,0.0,97,0.00,CLR,,0.00,WeatherDisplay:10.37,2013-10-08 09:05:00,
2013-10-08 05:10:00,94.1,76.5,29.85,West,270,3.0,7.0,57,0.00,CLR,,0.00,WeatherDisplay:10.37,2013-10-08 09:10:00,
2013-10-08 05:15:00,93.7,75.1,29.85,West,266,3.0,8.0,55,0.00,CLR,,0.00,WeatherDisplay:10.37,2013-10-08 09:15:00,
2013-10-08 05:20:00,93.5,75.4,29.85,West,267,6.0,10.0,56,0.00,CLR,,0.00,WeatherDisplay:10.37,2013-10-08 09:20:00,
2013-10-08 05:25:00,93.0,75.0,29.85,West,265,5.0,8.0,56,0.00,CLR,,0.00,WeatherDisplay:10.37,2013-10-08 09:25:00,
2013-10-08 05:30:00,92.1,75.2,29.85,West,271,5.0,8.0,58,0.00,CLR,,0.00,WeatherDisplay:10.37,2013-10-08 09:30:00,
2013-10-08 05:35:00,75.2,74.3,29.83,West,263,2.3,0.0,97,0.00,CLR,,0.00,WeatherDisplay:10.37,2013-10-08 09:35:00,
2013-10-08 05:40:00,91.7,74.8,29.85,West,264,3.0,8.0,58,0.00,CLR,,0.00,WeatherDisplay:10.37,2013-10-08 09:40:00,
2013-10-08 05:45:00,91.0,75.2,29.85,WSW,258,0.0,6.0,60,0.00,CLR,,0.00,WeatherDisplay:10.37,2013-10-08 09:45:00,
2013-10-08 05:50:00,91.0,75.7,29.85,West,269,3.0,8.0,61,0.00,CLR,,0.00,WeatherDisplay:10.37,2013-10-08 09:50:00,
2013-10-08 05:55:00,91.1,75.3,29.85,West,269,3.0,6.0,60,0.00,CLR,,0.00,WeatherDisplay:10.37,2013-10-08 09:55:00,
2013-10-08 06:00:00,91.8,74.9,29.85,West,261,1.0,7.0,58,0.00,CLR,,0.00,WeatherDisplay:10.37,2013-10-08 10:00:00,
2013-10-08 06:05:00,91.7,74.8,29.85,West,270,3.0,7.0,58,0.00,CLR,,0.00,WeatherDisplay:10.37,2013-10-08 10:05:00,
2013-10-08 06:10:00,92.2,76.3,29.84,West,261,1.0,7.0,60,0.00,CLR,,0.00,WeatherDisplay:10.37,2013-10-08 10:10:00,
2013-10-08 06:15:00,92.8,75.8,29.85,West,260,0.0,8.0,58,0.00,CLR,,0.00,WeatherDisplay:10.37,2013-10-08 10:15:00,
2013-10-08 06:16:00,75.2,74.3,29.83,West,263,2.3,0.0,97,0.00,CLR,,0.00,WeatherDisplay:10.37,2013-10-08 10:16:00,
2013-10-08 06:20:00,92.6,75.7,29.85,West,268,8.0,11.0,58,0.00,CLR,,0.00,WeatherDisplay:10.37,2013-10-08 10:20:00,
2013-10-08 06:25:00,91.8,75.4,29.85,West,280,0.0,10.0,59,0.00,CLR,,0.00,WeatherDisplay:10.37,2013-10-08 10:25:00,
2013-10-08 06:30:00,91.6,75.7,29.85,WNW,292,3.0,6.0,60,0.00,CLR,,0.00,WeatherDisplay:10.37,2013-10-08 10:30:00,
2013-10-08 06:35:00,91.3,75.0,29.85,WNW,292,1.0,5.0,59,0.00,CLR,,0.00,WeatherDisplay:10.37,2013-10-08 10:35:00,
2013-10-08 06:40:00,91.3,75.5,29.85,WNW,292,3.0,7.0,60,0.00,CLR,,0.00,WeatherDisplay:10.37,2013-10-08 10:40:00,
2013-10-08 06:44:00,75.2,74.3,29.83,West,263,2.3,0.0,97,0.00,CLR,,0.00,WeatherDisplay:10.37,2013-10-08 10:44:00,
2013-10-08 06:45:00,91.1,75.3,29.85,WNW,288,6.0,11.0,60,0.00,CLR,,0.00,WeatherDisplay:10.37,2013-10-08 10:45:00,
2013-10-08 06:50:00,75.2,74.3,29.83,West,263,2.3,0.0,97,0.00,CLR,,0.00,WeatherDisplay:10.37,2013-10-08 10:50:00,
2013-10-08 06:55:00,75.2,74.3,29.83,West,263,2.3,0.0,97,0.00,CLR,,0.00,WeatherDisplay:10.37,2013-10-08 10:55:00,
2013-10-08 07:00:00,90.0,75.2,29.85,WNW,295,6.0,11.0,62,0.00,CLR,,0.00,WeatherDisplay:10.37,2013-10-08 11:00:00,
2013-10-08 07:10:00,89.2,75.4,29.85,WNW,288,2.0,10.0,64,0.00,CLR,,0.00,WeatherDisplay:10.37,2013-10-08 11:10:00,
2013-10-08 07:15:00,89.1,75.3,29.85,WNW,287,3.0,7.0,64,0.00,CLR,,0.00,WeatherDisplay:10.37,2013-10-08 11:15:00,
2013-10-08 07:20:00,88.9,75.1,29.84,WNW,287,3.0,10.0,64,0.00,CLR,,0.00,WeatherDisplay:10.37,2013-10-08 11:20:00,
2013-10-08 07:25:00,88.9,75.1,29.84,WNW,289,5.0,12.0,64,0.00,CLR,,0.00,WeatherDisplay:10.37,2013-10-08 11:25:00,
2013-10-08 07:28:00,75.2,74.3,29.83,West,263,2.3,0.0,97,0.00,CLR,,0.00,WeatherDisplay:10.37,2013-10-08 11:28:00,
2013-10-08 07:30:00,88.8,75.0,29.85,WNW,291,1.0,12.0,64,0.00,CLR,,0.00,WeatherDisplay:10.37,2013-10-08 11:30:00,
2013-10-08 07:35:00,89.2,75.4,29.85,WNW,290,5.0,7.0,64,0.00,CLR,,0.00,WeatherDisplay:10.37,2013-10-08 11:35:00,
2013-10-08 07:40:00,89.6,75.3,29.85,WNW,290,1.0,11.0,63,0.00,CLR,,0.00,WeatherDisplay:10.37,2013-10-08 11:40:00,
2013-10-08 07:45:00,89.9,75.1,29.85,WNW,292,3.0,10.0,62,0.00,CLR,,0.00,WeatherDisplay:10.37,2013-10-08 11:45:00,
2013-10-08 07:50:00,90.0,75.2,29.85,WNW,291,5.0,8.0,62,0.00,CLR,,0.00,WeatherDisplay:10.37,2013-10-08 11:50:00,
2013-10-08 07:55:00,90.0,75.2,29.85,WNW,291,5.0,8.0,62,0.00,CLR,,0.00,WeatherDisplay:10.37,2013-10-08 11:55:00,
2013-10-08 08:00:00,89.6,75.3,29.85,WNW,292,3.0,7.0,63,0.00,CLR,,0.00,WeatherDisplay:10.37,2013-10-08 12:00:00,
2013-10-08 08:05:00,89.0,74.8,29.85,WNW,292,3.0,7.0,63,0.00,CLR,,0.00,WeatherDisplay:10.37,2013-10-08 12:05:00,
2013-10-08 08:10:00,88.5,74.8,29.85,WNW,292,1.0,5.0,64,0.00,CLR,,0.00,WeatherDisplay:10.37,2013-10-08 12:10:00,
2013-10-08 08:15:00,88.2,75.4,29.85,WNW,292,0.0,4.0,66,0.00,CLR,,0.00,WeatherDisplay:10.37,2013-10-08 12:15:00,
2013-10-08 08:20:00,87.8,75.0,29.85,WNW,292,0.0,5.0,66,0.00,CLR,,0.00,WeatherDisplay:10.37,2013-10-08 12:20:00,
2013-10-08 08:25:00,87.6,74.8,29.86,WNW,292,2.0,4.0,66,0.00,CLR,,0.00,WeatherDisplay:10.37,2013-10-08 12:25:00,
2013-10-08 08:30:00,87.4,75.1,29.86,WNW,292,1.0,4.0,67,0.00,CLR,,0.00,WeatherDisplay:10.37,2013-10-08 12:30:00,
2013-10-08 08:35:00,87.3,74.5,29.86,WNW,292,0.0,5.0,66,0.00,CLR,,0.00,WeatherDisplay:10.37,2013-10-08 12:35:00,
2013-10-08 08:40:00,87.1,74.8,29.86,WNW,292,2.0,4.0,67,0.00,CLR,,0.00,WeatherDisplay:10.37,2013-10-08 12:40:00,
2013-10-08 08:45:00,86.8,74.5,29.86,WNW,287,0.0,9.0,67,0.00,CLR,,0.00,WeatherDisplay:10.37,2013-10-08 12:45:00,
2013-10-08 08:50:00,86.5,74.7,29.86,West,279,3.0,5.0,68,0.00,CLR,,0.00,WeatherDisplay:10.37,2013-10-08 12:50:00,
2013-10-08 08:55:00,86.2,74.8,29.87,West,270,1.0,4.0,69,0.00,CLR,,0.00,WeatherDisplay:10.37,2013-10-08 12:55:00,
2013-10-08 09:00:00,85.8,74.4,29.86,West,270,0.0,4.0,69,0.00,CLR,,0.00,WeatherDisplay:10.37,2013-10-08 13:00:00,
2013-10-08 09:05:00,85.5,74.2,29.86,West,270,0.0,4.0,69,0.00,CLR,,0.00,WeatherDisplay:10.37,2013-10-08 13:05:00,
2013-10-08 09:09:00,75.2,74.3,29.83,West,263,2.3,0.0,97,0.00,CLR,,0.00,WeatherDisplay:10.37,2013-10-08 13:09:00,
2013-10-08 09:10:00,85.2,74.3,29.87,West,270,0.0,3.0,70,0.00,CLR,,0.00,WeatherDisplay:10.37,2013-10-08 13:10:00,
2013-10-08 09:15:00,85.0,74.5,29.87,West,270,0.0,1.0,71,0.00,CLR,,0.00,WeatherDisplay:10.37,2013-10-08 13:15:00,
2013-10-08 09:20:00,84.8,74.3,29.87,West,270,0.0,1.0,71,0.00,CLR,,0.00,WeatherDisplay:10.37,2013-10-08 13:20:00,
2013-10-08 09:25:00,84.6,74.6,29.87,West,270,0.0,1.0,72,0.00,CLR,,0.00,WeatherDisplay:10.37,2013-10-08 13:25:00,
2013-10-08 09:30:00,84.3,74.3,29.87,West,270,0.0,1.0,72,0.00,CLR,,0.00,WeatherDisplay:10.37,2013-10-08 13:30:00,
2013-10-08 09:35:00,84.1,74.5,29.88,West,270,0.0,2.0,73,0.00,CLR,,0.00,WeatherDisplay:10.37,2013-10-08 13:35:00,
2013-10-08 09:40:00,83.7,74.5,29.88,West,270,0.0,4.0,74,0.00,CLR,,0.00,WeatherDisplay:10.37,2013-10-08 13:40:00,
2013-10-08 09:45:00,83.4,74.2,29.88,West,270,3.0,4.0,74,0.00,CLR,,0.00,WeatherDisplay:10.37,2013-10-08 13:45:00,
2013-10-08 09:50:00,83.1,74.4,29.88,West,270,2.0,6.0,75,0.00,CLR,,0.00,WeatherDisplay:10.37,2013-10-08 13:50:00,
2013-10-08 09:55:00,82.9,73.8,29.88,West,270,3.0,4.0,74,0.00,CLR,,0.00,WeatherDisplay:10.37,2013-10-08 13:55:00,
2013-10-08 10:00:00,82.7,74.0,29.88,West,270,1.0,4.0,75,0.00,CLR,,0.00,WeatherDisplay:10.37,2013-10-08 14:00:00,
2013-10-08 10:05:00,82.5,73.8,29.88,West,270,0.0,4.0,75,0.00,CLR,,0.00,WeatherDisplay:10.37,2013-10-08 14:05:00,
2013-10-08 10:10:00,82.4,73.7,29.89,West,270,0.0,3.0,75,0.00,CLR,,0.00,WeatherDisplay:10.37,2013-10-08 14:10:00,
2013-10-08 10:15:00,82.1,73.8,29.89,West,270,0.0,6.0,76,0.00,CLR,,0.00,WeatherDisplay:10.37,2013-10-08 14:15:00,
2013-10-08 10:20:00,81.8,73.5,29.89,West,270,0.0,3.0,76,0.00,CLR,,0.00,WeatherDisplay:10.37,2013-10-08 14:20:00,
2013-10-08 10:25:00,81.6,73.7,29.89,West,270,1.0,4.0,77,0.00,CLR,,0.00,WeatherDisplay:10.37,2013-10-08 14:25:00,
2013-10-08 10:30:00,81.4,73.5,29.90,West,270,2.0,5.0,77,0.00,CLR,,0.00,WeatherDisplay:10.37,2013-10-08 14:30:00,
2013-10-08 10:35:00,81.2,73.3,29.90,West,270,3.0,5.0,77,0.00,CLR,,0.00,WeatherDisplay:10.37,2013-10-08 14:35:00,
2013-10-08 10:40:00,81.0,73.1,29.90,West,270,3.0,6.0,77,0.00,CLR,,0.00,WeatherDisplay:10.37,2013-10-08 14:40:00,
2013-10-08 10:45:00,80.8,72.9,29.90,West,274,3.0,5.0,77,0.00,CLR,,0.00,WeatherDisplay:10.37,2013-10-08 14:45:00,
2013-10-08 10:50:00,80.6,73.1,29.90,WNW,287,2.0,6.0,78,0.00,CLR,,0.00,WeatherDisplay:10.37,2013-10-08 14:50:00,
2013-10-08 10:55:00,80.4,73.3,29.90,WNW,292,2.0,5.0,79,0.00,CLR,,0.00,WeatherDisplay:10.37,2013-10-08 14:55:00,
2013-10-08 11:00:00,80.2,73.1,29.90,WNW,292,2.0,4.0,79,0.00,CLR,,0.00,WeatherDisplay:10.37,2013-10-08 15:00:00,
2013-10-08 11:05:00,79.9,72.8,29.91,WNW,292,3.0,6.0,79,0.00,CLR,,0.00,WeatherDisplay:10.37,2013-10-08 15:05:00,
2013-10-08 11:10:00,79.7,73.0,29.91,WNW,292,1.0,9.0,80,0.00,CLR,,0.00,WeatherDisplay:10.37,2013-10-08 15:10:00,
2013-10-08 11:15:00,79.5,72.8,29.91,WNW,292,3.0,7.0,80,0.00,CLR,,0.00,WeatherDisplay:10.37,2013-10-08 15:15:00,
2013-10-08 11:20:00,79.3,73.0,29.91,WNW,292,1.0,9.0,81,0.00,CLR,,0.00,WeatherDisplay:10.37,2013-10-08 15:20:00,
2013-10-08 11:25:00,79.1,72.8,29.91,WNW,292,1.0,6.0,81,0.00,CLR,,0.00,WeatherDisplay:10.37,2013-10-08 15:25:00,
2013-10-08 11:30:00,78.9,72.6,29.91,WNW,292,2.0,6.0,81,0.00,CLR,,0.00,WeatherDisplay:10.37,2013-10-08 15:30:00,
2013-10-08 11:35:00,78.7,72.4,29.91,WNW,292,3.0,6.0,81,0.00,CLR,,0.00,WeatherDisplay:10.37,2013-10-08 15:35:00,
2013-10-08 11:40:00,78.7,72.4,29.91,WNW,292,3.0,7.0,81,0.00,CLR,,0.00,WeatherDisplay:10.37,2013-10-08 15:40:00,
2013-10-08 11:45:00,78.6,72.6,29.91,WNW,292,3.0,6.0,82,0.00,CLR,,0.00,WeatherDisplay:10.37,2013-10-08 15:45:00,
2013-10-08 11:48:00,75.2,74.3,29.83,West,263,2.3,0.0,97,0.00,CLR,,0.00,WeatherDisplay:10.37,2013-10-08 15:48:00,
2013-10-08 11:50:00,78.4,72.4,29.91,WNW,292,0.0,6.0,82,0.00,CLR,,0.00,WeatherDisplay:10.37,2013-10-08 15:50:00,
2013-10-08 11:55:00,78.2,72.3,29.92,WNW,292,1.0,4.0,82,0.00,CLR,,0.00,WeatherDisplay:10.37,2013-10-08 15:55:00,
2013-10-08 12:00:00,78.1,72.2,29.91,WNW,292,1.0,3.0,82,0.00,CLR,,0.00,WeatherDisplay:10.37,2013-10-08 16:00:00,
2013-10-08 12:05:00,77.9,72.3,29.92,WNW,292,1.0,5.0,83,0.00,CLR,,0.00,WeatherDisplay:10.37,2013-10-08 16:05:00,
2013-10-08 12:10:00,77.8,72.2,29.92,WNW,292,0.0,5.0,83,0.00,CLR,,0.00,WeatherDisplay:10.37,2013-10-08 16:10:00,
2013-10-08 12:15:00,77.7,72.1,29.92,WNW,292,0.0,1.0,83,0.00,CLR,,0.00,WeatherDisplay:10.37,2013-10-08 16:15:00,
2013-10-08 12:20:00,77.5,72.3,29.92,WNW,292,3.0,5.0,84,0.00,CLR,,0.00,WeatherDisplay:10.37,2013-10-08 16:20:00,
2013-10-08 12:25:00,77.4,72.2,29.92,WNW,292,0.0,4.0,84,0.00,CLR,,0.00,WeatherDisplay:10.37,2013-10-08 16:25:00,
2013-10-08 12:30:00,77.3,72.1,29.92,WNW,292,3.0,6.0,84,0.00,CLR,,0.00,WeatherDisplay:10.37,2013-10-08 16:30:00,
2013-10-08 12:35:00,77.1,71.9,29.92,WNW,292,2.0,6.0,84,0.00,CLR,,0.00,WeatherDisplay:10.37,2013-10-08 16:35:00,
2013-10-08 12:40:00,77.1,71.9,29.92,WNW,292,3.0,7.0,84,0.00,CLR,,0.00,WeatherDisplay:10.37,2013-10-08 16:40:00,
2013-10-08 12:45:00,77.0,71.8,29.93,WNW,292,3.0,6.0,84,0.00,CLR,,0.00,WeatherDisplay:10.37,2013-10-08 16:45:00,
2013-10-08 12:50:00,76.9,71.7,29.93,WNW,292,2.0,6.0,84,0.00,CLR,,0.00,WeatherDisplay:10.37,2013-10-08 16:50:00,
2013-10-08 12:55:00,76.8,71.6,29.92,WNW,292,1.0,5.0,84,0.00,CLR,,0.00,WeatherDisplay:10.37,2013-10-08 16:55:00,
2013-10-08 13:00:00,76.7,71.5,29.92,WNW,292,2.0,6.0,84,0.00,CLR,,0.00,WeatherDisplay:10.37,2013-10-08 17:00:00,
2013-10-08 13:05:00,76.6,71.7,29.92,WNW,292,0.0,9.0,85,0.00,CLR,,0.00,WeatherDisplay:10.37,2013-10-08 17:05:00,
2013-10-08 13:07:00,75.2,74.3,29.83,West,263,2.3,0.0,97,0.00,CLR,,0.00,WeatherDisplay:10.37,2013-10-08 17:07:00,
2013-10-08 13:10:00,76.5,71.7,29.92,WNW,292,3.0,6.0,85,0.00,CLR,,0.00,WeatherDisplay:10.37,2013-10-08 17:10:00,
2013-10-08 13:15:00,76.4,71.6,29.93,WNW,292,3.0,6.0,85,0.00,CLR,,0.00,WeatherDisplay:10.37,2013-10-08 17:15:00,
2013-10-08 13:20:00,76.3,71.5,29.93,WNW,292,1.0,5.0,85,0.00,CLR,,0.00,WeatherDisplay:10.37,2013-10-08 17:20:00,
2013-10-08 13:24:00,75.2,74.3,29.83,West,263,2.3,0.0,97,0.00,CLR,,0.00,WeatherDisplay:10.37,2013-10-08 17:24:00,
2013-10-08 13:25:00,76.2,71.4,29.92,WNW,292,2.0,5.0,85,0.00,CLR,,0.00,WeatherDisplay:10.37,2013-10-08 17:25:00,
2013-10-08 13:30:00,76.1,71.3,29.92,WNW,292,2.0,5.0,85,0.00,CLR,,0.00,WeatherDisplay:10.37,2013-10-08 17:30:00,
2013-10-08 13:35:00,76.0,71.2,29.92,WNW,292,0.0,4.0,85,0.00,CLR,,0.00,WeatherDisplay:10.37,2013-10-08 17:35:00,
2013-10-08 13:40:00,75.2,74.3,29.83,West,263,2.3,0.0,97,0.00,CLR,,0.00,WeatherDisplay:10.37,2013-10-08 17:40:00,
2013-10-08 13:45:00,75.8,71.3,29.92,WNW,292,0.0,6.0,86,0.00,CLR,,0.00,WeatherDisplay:10.37,2013-10-08 17:45:00,
2013-10-08 13:50:00,75.7,71.2,29.92,WNW,292,0.0,1.0,86,0.00,CLR,,0.00,WeatherDisplay:10.37,2013-10-08 17:50:00,
2013-10-08 13:55:00,75.6,71.1,29.92,WNW,292,1.0,4.0,86,0.00,CLR,,0.00,WeatherDisplay:10.37,2013-10-08 17:55:00,
2013-10-08 14:00:00,75.5,71.0,29.93,WNW,292,0.0,2.0,86,0.00,CLR,,0.00,WeatherDisplay:10.37,2013-10-08 18:00:00,
2013-10-08 14:05:00,75.4,70.9,29.92,WNW,292,0.0,3.0,86,0.00,CLR,,0.00,WeatherDisplay:10.37,2013-10-08 18:05:00,
2013-10-08 14:10:00,75.3,71.2,29.92,WNW,292,0.0,5.0,87,0.00,CLR,,0.00,WeatherDisplay:10.37,2013-10-08 18:10:00,
2013-10-08 14:15:00,75.1,71.0,29.92,WNW,292,0.0,1.0,87,0.00,CLR,,0.00,WeatherDisplay:10.37,2013-10-08 18:15:00,
2013-10-08 14:20:00,75.0,70.9,29.92,WNW,292,0.0,1.0,87,0.00,CLR,,0.00,WeatherDisplay:10.37,2013-10-08 18:20:00,
2013-10-08 14:25:00,74.8,71.0,29.92,WNW,292,0.0,1.0,88,0.00,CLR,,0.00,WeatherDisplay:10.37,2013-10-08 18:25:00,
2013-10-08 14:30:00,74.6,70.8,29.92,WNW,292,0.0,1.0,88,0.00,CLR,,0.00,WeatherDisplay:10.37,2013-10-08 18:30:00,
2013-10-08 14:35:00,74.4,70.9,29.92,WNW,292,0.0,1.0,89,0.00,CLR,,0.00,WeatherDisplay:10.37,2013-10-08 18:35:00,
2013-10-08 14:40:00,74.3,70.8,29.92,WNW,292,0.0,4.0,89,0.00,CLR,,0.00,WeatherDisplay:10.37,2013-10-08 18:40:00,
2013-10-08 14:45:00,74.2,70.7,29.91,WNW,292,0.0,1.0,89,0.00,CLR,,0.00,WeatherDisplay:10.37,2013-10-08 18:45:00,
2013-10-08 14:50:00,74.1,70.6,29.91,WNW,292,0.0,0.0,89,0.00,CLR,,0.00,WeatherDisplay:10.37,2013-10-08 18:50:00,
2013-10-08 14:55:00,73.9,70.5,29.91,WNW,292,0.0,0.0,89,0.00,CLR,,0.00,WeatherDisplay:10.37,2013-10-08 18:55:00,
2013-10-08 15:00:00,73.7,70.3,29.91,WNW,292,0.0,2.0,89,0.00,CLR,,0.00,WeatherDisplay:10.37,2013-10-08 19:00:00,
2013-10-08 15:05:00,73.4,70.3,29.91,WNW,292,0.0,0.0,90,0.00,CLR,,0.00,WeatherDisplay:10.37,2013-10-08 19:05:00,
2013-10-08 15:10:00,73.2,70.1,29.91,WNW,292,0.0,1.0,90,0.00,CLR,,0.00,WeatherDisplay:10.37,2013-10-08 19:10:00,
2013-10-08 15:15:00,72.9,69.8,29.91,WNW,292,0.0,0.0,90,0.00,CLR,,0.00,WeatherDisplay:10.37,2013-10-08 19:15:00,
2013-10-08 15:19:00,75.2,74.3,29.83,West,263,2.3,0.0,97,0.00,CLR,,0.00,WeatherDisplay:10.37,2013-10-08 19:19:00,
2013-10-08 15:20:00,72.7,69.9,29.91,WNW,292,0.0,0.0,91,0.00,CLR,,0.00,WeatherDisplay:10.37,2013-10-08 19:20:00,
2013-10-08 15:25:00,72.4,69.6,29.91,WNW,292,0.0,0.0,91,0.00,CLR,,0.00,WeatherDisplay:10.37,2013-10-08 19:25:00,
2013-10-08 15:30:00,72.2,69.4,29.91,WNW,292,0.0,0.0,91,0.00,CLR,,0.00,WeatherDisplay:10.37,2013-10-08 19:30:00,
2013-10-08 15:35:00,72.1,69.6,29.91,WNW,292,0.0,0.0,92,0.00,CLR,,0.00,WeatherDisplay:10.37,2013-10-08 19:35:00,
2013-10-08 15:40:00,71.9,69.4,29.91,WNW,292,0.0,0.0,92,0.00,CLR,,0.00,WeatherDisplay:10.37,2013-10-08 19:40:00,
2013-10-08 15:45:00,71.7,69.3,29.91,WNW,292,0.0,0.0,92,0.00,CLR,,0.00,WeatherDisplay:10.37,2013-10-08 19:45:00,
2013-10-08 15:50:00,71.6,69.5,29.91,WNW,292,0.0,0.0,93,0.00,CLR,,0.00,WeatherDisplay:10.37,2013-10-08 19:50:00,
2013-10-08 15:55:00,71.4,69.3,29.91,WNW,292,0.0,0.0,93,0.00,CLR,,0.00,WeatherDisplay:10.37,2013-10-08 19:55:00,
2013-10-08 16:00:00,71.3,69.2,29.91,WNW,292,0.0,0.0,93,0.00,CLR,,0.00,WeatherDisplay:10.37,2013-10-08 20:00:00,
2013-10-08 16:05:00,71.3,69.2,29.91,WNW,292,0.0,0.0,93,0.00,CLR,,0.00,WeatherDisplay:10.37,2013-10-08 20:05:00,
2013-10-08 16:10:00,71.0,68.9,29.91,WNW,292,0.0,0.0,93,0.00,CLR,,0.00,WeatherDisplay:10.37,2013-10-08 20:10:00,
2013-10-08 16:15:00,71.0,69.2,29.91,WNW,292,0.0,0.0,94,0.00,CLR,,0.00,WeatherDisplay:10.37,2013-10-08 20:15:00,
2013-10-08 16:20:00,70.8,69.0,29.91,WNW,292,0.0,0.0,94,0.00,CLR,,0.00,WeatherDisplay:10.37,2013-10-08 20:20:00,
2013-10-08 16:25:00,70.6,68.8,29.91,WNW,292,0.0,0.0,94,0.00,CLR,,0.00,WeatherDisplay:10.37,2013-10-08 20:25:00,
2013-10-08 16:30:00,70.4,68.6,29.91,WNW,292,0.0,0.0,94,0.00,CLR,,0.00,WeatherDisplay:10.37,2013-10-08 20:30:00,
2013-10-08 16:35:00,70.2,68.4,29.91,WNW,292,0.0,0.0,94,0.00,CLR,,0.00,WeatherDisplay:10.37,2013-10-08 20:35:00,
2013-10-08 16:40:00,70.1,68.3,29.91,WNW,292,0.0,0.0,94,0.00,CLR,,0.00,WeatherDisplay:10.37,2013-10-08 20:40:00,
2013-10-08 16:45:00,70.0,68.2,29.91,WNW,292,0.0,0.0,94,0.00,CLR,,0.00,WeatherDisplay:10.37,2013-10-08 20:45:00,
2013-10-08 16:50:00,69.9,68.1,29.91,WNW,292,0.0,0.0,94,0.00,CLR,,0.00,WeatherDisplay:10.37,2013-10-08 20:50:00,
2013-10-08 16:55:00,69.8,68.0,29.92,WNW,292,0.0,0.0,94,0.00,CLR,,0.00,WeatherDisplay:10.37,2013-10-08 20:55:00,
2013-10-08 17:00:00,69.8,68.3,29.91,WNW,292,0.0,0.0,95,0.00,CLR,,0.00,WeatherDisplay:10.37,2013-10-08 21:00:00,
2013-10-08 17:05:00,69.8,68.3,29.91,WNW,292,0.0,0.0,95,0.00,CLR,,0.00,WeatherDisplay:10.37,2013-10-08 21:05:00,
2013-10-08 17:10:00,70.1,68.6,29.91,WNW,292,0.0,0.0,95,0.00,CLR,,0.00,WeatherDisplay:10.37,2013-10-08 21:10:00,
2013-10-08 17:15:00,70.2,68.7,29.91,WNW,292,0.0,1.0,95,0.00,CLR,,0.00,WeatherDisplay:10.37,2013-10-08 21:15:00,
2013-10-08 17:20:00,70.3,68.8,29.91,WNW,292,0.0,0.0,95,0.00,CLR,,0.00,WeatherDisplay:10.37,2013-10-08 21:20:00,
2013-10-08 17:25:00,70.3,68.8,29.91,WNW,292,0.0,0.0,95,0.00,CLR,,0.00,WeatherDisplay:10.37,2013-10-08 21:25:00,
2013-10-08 17:30:00,70.3,68.8,29.91,WNW,292,0.0,0.0,95,0.00,CLR,,0.00,WeatherDisplay:10.37,2013-10-08 21:30:00,
2013-10-08 17:35:00,70.3,68.8,29.91,WNW,292,0.0,1.0,95,0.00,CLR,,0.00,WeatherDisplay:10.37,2013-10-08 21:35:00,
2013-10-08 17:40:00,70.4,68.9,29.91,WNW,292,0.0,0.0,95,0.00,CLR,,0.00,WeatherDisplay:10.37,2013-10-08 21:40:00,
2013-10-08 17:45:00,70.4,68.9,29.90,WNW,292,0.0,0.0,95,0.00,CLR,,0.00,WeatherDisplay:10.37,2013-10-08 21:45:00,
2013-10-08 17:50:00,70.3,68.8,29.90,WNW,292,0.0,0.0,95,0.00,CLR,,0.00,WeatherDisplay:10.37,2013-10-08 21:50:00,
2013-10-08 17:55:00,70.2,68.7,29.90,WNW,292,0.0,0.0,95,0.00,CLR,,0.00,WeatherDisplay:10.37,2013-10-08 21:55:00,
2013-10-08 18:00:00,70.0,68.5,29.90,WNW,292,0.0,0.0,95,0.00,CLR,,0.00,WeatherDisplay:10.37,2013-10-08 22:00:00,
2013-10-08 18:05:00,69.9,68.4,29.90,WNW,292,0.0,0.0,95,0.00,CLR,,0.00,WeatherDisplay:10.37,2013-10-08 22:05:00,
2013-10-08 18:10:00,69.8,68.3,29.89,WNW,292,0.0,0.0,95,0.00,CLR,,0.00,WeatherDisplay:10.37,2013-10-08 22:10:00,
2013-10-08 18:15:00,69.8,68.6,29.90,WNW,292,0.0,0.0,96,0.00,CLR,,0.00,WeatherDisplay:10.37,2013-10-08 22:15:00,
2013-10-08 18:20:00,69.8,68.6,29.90,WNW,292,0.0,0.0,96,0.00,CLR,,0.00,WeatherDisplay:10.37,2013-10-08 22:20:00,
2013-10-08 18:25:00,69.8,68.6,29.90,WNW,292,0.0,0.0,96,0.00,CLR,,0.00,WeatherDisplay:10.37,2013-10-08 22:25:00,
2013-10-08 18:30:00,69.9,68.7,29.90,WNW,292,0.0,0.0,96,0.00,CLR,,0.00,WeatherDisplay:10.37,2013-10-08 22:30:00,
2013-10-08 18:35:00,70.0,68.8,29.91,WNW,292,0.0,2.0,96,0.00,CLR,,0.00,WeatherDisplay:10.37,2013-10-08 22:35:00,
2013-10-08 18:40:00,70.1,68.9,29.90,WNW,292,0.0,2.0,96,0.00,CLR,,0.00,WeatherDisplay:10.37,2013-10-08 22:40:00,
2013-10-08 18:45:00,70.1,68.9,29.90,WNW,292,0.0,0.0,96,0.00,CLR,,0.00,WeatherDisplay:10.37,2013-10-08 22:45:00,
2013-10-08 18:50:00,70.2,69.0,29.90,WNW,292,0.0,1.0,96,0.00,CLR,,0.00,WeatherDisplay:10.37,2013-10-08 22:50:00,
2013-10-08 18:55:00,70.4,69.2,29.90,WNW,292,0.0,3.0,96,0.00,CLR,,0.00,WeatherDisplay:10.37,2013-10-08 22:55:00,
2013-10-08 19:00:00,70.6,69.4,29.90,WNW,292,1.0,2.0,96,0.00,CLR,,0.00,WeatherDisplay:10.37,2013-10-08 23:00:00,
2013-10-08 19:05:00,70.8,69.6,29.90,WNW,292,0.0,4.0,96,0.00,CLR,,0.00,WeatherDisplay:10.37,2013-10-08 23:05:00,
2013-10-08 19:10:00,70.9,69.7,29.90,WNW,292,0.0,3.0,96,0.00,CLR,,0.00,WeatherDisplay:10.37,2013-10-08 23:10:00,
2013-10-08 19:15:00,71.0,69.8,29.90,WNW,292,1.0,4.0,96,0.00,CLR,,0.00,WeatherDisplay:10.37,2013-10-08 23:15:00,
2013-10-08 19:20:00,71.2,70.0,29.90,WNW,292,1.0,4.0,96,0.00,CLR,,0.00,WeatherDisplay:10.37,2013-10-08 23:20:00,
2013-10-08 19:25:00,71.3,69.8,29.90,WNW,292,1.0,4.0,95,0.00,CLR,,0.00,WeatherDisplay:10.37,2013-10-08 23:25:00,
2013-10-08 19:30:00,71.5,70.0,29.91,WNW,292,0.0,3.0,95,0.00,CLR,,0.00,WeatherDisplay:10.37,2013-10-08 23:30:00,
2013-10-08 19:35:00,71.6,70.1,29.91,WNW,292,2.0,4.0,95,0.00,CLR,,0.00,WeatherDisplay:10.37,2013-10-08 23:35:00,
2013-10-08 19:40:00,75.2,74.3,29.83,West,263,2.3,0.0,97,0.00,CLR,,0.00,WeatherDisplay:10.37,2013-10-08 23:40:00,
2013-10-08 19:45:00,71.7,69.9,29.91,WNW,292,0.0,1.0,94,0.00,CLR,,0.00,WeatherDisplay:10.37,2013-10-08 23:45:00,
2013-10-08 19:50:00,71.7,69.9,29.91,WNW,292,0.0,3.0,94,0.00,CLR,,0.00,WeatherDisplay:10.37,2013-10-08 23:50:00,
2013-10-08 19:55:00,71.7,69.6,29.91,WNW,292,0.0,1.0,93,0.00,CLR,,0.00,WeatherDisplay:10.37,2013-10-08 23:55:00,
2013-10-08 20:00:00,71.7,69.9,29.91,WNW,292,0.0,0.0,94,0.00,CLR,,0.00,WeatherDisplay:10.37,2013-10-09 00:00:00,
2013-10-08 20:05:00,71.6,69.8,29.91,WNW,292,0.0,0.0,94,0.00,CLR,,0.00,WeatherDisplay:10.37,2013-10-09 00:05:00,
2013-10-08 20:10:00,71.5,69.7,29.91,WNW,292,0.0,3.0,94,0.00,CLR,,0.00,WeatherDisplay:10.37,2013-10-09 00:10:00,
2013-10-08 20:12:00,75.2,74.3,29.83,West,263,2.3,0.0,97,0.00,CLR,,0.00,WeatherDisplay:10.37,2013-10-09 00:12:00,
2013-10-08 20:15:00,71.5,69.7,29.92,WNW,292,0.0,0.0,94,0.00,CLR,,0.00,WeatherDisplay:10.37,2013-10-09 00:15:00,
2013-10-08 20:20:00,71.6,69.8,29.92,WNW,292,0.0,1.0,94,0.00,CLR,,0.00,WeatherDisplay:10.37,2013-10-09 00:20:00,
2013-10-08 20:25:00,71.7,69.9,29.92,WNW,292,0.0,1.0,94,0.00,CLR,,0.00,WeatherDisplay:10.37,2013-10-09 00:25:00,
2013-10-08 20:30:00,71.8,70.0,29.92,WNW,292,0.0,1.0,94,0.00,CLR,,0.00,WeatherDisplay:10.37,2013-10-09 00:30:00,
2013-10-08 20:35:00,71.9,70.1,29.92,WNW,292,0.0,0.0,94,0.00,CLR,,0.00,WeatherDisplay:10.37,2013-10-09 00:35:00,
2013-10-08 20:40:00,71.8,70.0,29.92,WNW,292,0.0,1.0,94,0.00,CLR,,0.00,WeatherDisplay:10.37,2013-10-09 00:40:00,
2013-10-08 20:45:00,71.8,70.0,29.92,WNW,292,0.0,1.0,94,0.00,CLR,,0.00,WeatherDisplay:10.37,2013-10-09 00:45:00,
2013-10-08 20:50:00,71.8,70.0,29.92,WNW,292,0.0,0.0,94,0.00,CLR,,0.00,WeatherDisplay:10.37,2013-10-09 00:50:00,
2013-10-08 20:55:00,71.8,70.0,29.92,WNW,292,0.0,0.0,94,0.00,CLR,,0.00,WeatherDisplay:10.37,2013-10-09 00:55:00,
2013-10-08 21:00:00,71.9,70.1,29.93,WNW,292,0.0,0.0,94,0.00,CLR,,0.00,WeatherDisplay:10.37,2013-10-09 01:00:00,
2013-10-08 21:05:00,71.9,70.1,29.93,WNW,292,0.0,1.0,94,0.00,CLR,,0.00,WeatherDisplay:10.37,2013-10-09 01:05:00,
2013-10-08 21:10:00,71.9,70.1,29.93,WNW,292,0.0,1.0,94,0.00,CLR,,0.00,WeatherDisplay:10.37,2013-10-09 01:10:00,
2013-10-08 21:15:00,71.8,70.0,29.93,WNW,292,0.0,1.0,94,0.00,CLR,,0.00,WeatherDisplay:10.37,2013-10-09 01:15:00,
2013-10-08 21:20:00,72.0,70.5,29.93,WNW,292,0.0,1.0,95,0.00,CLR,,0.00,WeatherDisplay:10.37,2013-10-09 01:20:00,
2013-10-08 21:25:00,72.1,70.6,29.93,WNW,292,1.0,4.0,95,0.00,CLR,,0.00,WeatherDisplay:10.37,2013-10-09 01:25:00,
2013-10-08 21:30:00,72.2,70.7,29.93,WNW,292,0.0,3.0,95,0.00,CLR,,0.00,WeatherDisplay:10.37,2013-10-09 01:30:00,
2013-10-08 21:35:00,72.4,70.9,29.93,WNW,292,0.0,3.0,95,0.00,CLR,,0.00,WeatherDisplay:10.37,2013-10-09 01:35:00,
2013-10-08 21:40:00,72.7,71.2,29.93,WNW,292,1.0,4.0,95,0.00,CLR,,0.00,WeatherDisplay:10.37,2013-10-09 01:40:00,
2013-10-08 21:45:00,73.0,71.5,29.93,WNW,292,0.0,4.0,95,0.00,CLR,,0.00,WeatherDisplay:10.37,2013-10-09 01:45:00,
2013-10-08 21:50:00,73.4,71.9,29.93,WNW,292,0.0,3.0,95,0.00,CLR,,0.00,WeatherDisplay:10.37,2013-10-09 01:50:00,
2013-10-08 21:55:00,73.8,72.3,29.93,WNW,292,0.0,3.0,95,0.00,CLR,,0.00,WeatherDisplay:10.37,2013-10-09 01:55:00,
2013-10-08 22:00:00,74.2,72.7,29.93,WNW,292,0.0,4.0,95,0.00,CLR,,0.00,WeatherDisplay:10.37,2013-10-09 02:00:00,
2013-10-08 22:05:00,74.5,73.0,29.93,WNW,292,1.0,4.0,95,0.00,CLR,,0.00,WeatherDisplay:10.37,2013-10-09 02:05:00,
2013-10-08 22:10:00,74.7,72.9,29.93,WNW,292,0.0,5.0,94,0.00,CLR,,0.00,WeatherDisplay:10.37,2013-10-09 02:10:00,
2013-10-08 22:15:00,74.8,73.0,29.93,WNW,292,3.0,6.0,94,0.00,CLR,,0.00,WeatherDisplay:10.37,2013-10-09 02:15:00,
2013-10-08 22:20:00,74.9,73.1,29.93,WNW,292,2.0,5.0,94,0.00,CLR,,0.00,WeatherDisplay:10.37,2013-10-09 02:20:00,
2013-10-08 22:25:00,74.9,72.7,29.94,WNW,292,3.0,7.0,93,0.00,CLR,,0.00,WeatherDisplay:10.37,2013-10-09 02:25:00,
2013-10-08 22:30:00,75.0,73.2,29.94,WNW,292,3.0,6.0,94,0.00,CLR,,0.00,WeatherDisplay:10.37,2013-10-09 02:30:00,
2013-10-08 22:35:00,75.3,73.5,29.94,WNW,292,3.0,6.0,94,0.00,CLR,,0.00,WeatherDisplay:10.37,2013-10-09 02:35:00,
2013-10-08 22:40:00,75.6,73.8,29.94,WNW,292,1.0,5.0,94,0.00,CLR,,0.00,WeatherDisplay:10.37,2013-10-09 02:40:00,
2013-10-08 22:45:00,76.0,73.8,29.94,WNW,292,3.0,6.0,93,0.00,CLR,,0.00,WeatherDisplay:10.37,2013-10-09 02:45:00,
2013-10-08 22:50:00,76.3,74.1,29.95,WNW,292,1.0,5.0,93,0.00,CLR,,0.00,WeatherDisplay:10.37,2013-10-09 02:50:00,
2013-10-08 22:55:00,76.3,73.8,29.95,WNW,283,1.0,7.0,92,0.00,CLR,,0.00,WeatherDisplay:10.37,2013-10-09 02:55:00,
2013-10-08 23:00:00,76.5,74.0,29.95,West,274,3.0,7.0,92,0.00,CLR,,0.00,WeatherDisplay:10.37,2013-10-09 03:00:00,
2013-10-08 23:05:00,76.6,74.1,29.95,West,270,0.0,5.0,92,0.00,CLR,,0.00,WeatherDisplay:10.37,2013-10-09 03:05:00,
2013-10-08 23:10:00,76.8,74.0,29.95,West,270,2.0,4.0,91,0.00,CLR,,0.00,WeatherDisplay:10.37,2013-10-09 03:10:00,
2013-10-08 23:15:00,76.9,74.1,29.95,West,270,0.0,4.0,91,0.00,CLR,,0.00,WeatherDisplay:10.37,2013-10-09 03:15:00,
2013-10-08 23:20:00,77.1,74.3,29.95,West,270,1.0,4.0,91,0.00,CLR,,0.00,WeatherDisplay:10.37,2013-10-09 03:20:00,
2013-10-08 23:25:00,77.3,74.5,29.95,West,279,3.0,6.0,91,0.00,CLR,,0.00,WeatherDisplay:10.37,2013-10-09 03:25:00,
2013-10-08 23:30:00,77.6,74.4,29.95,WNW,288,3.0,5.0,90,0.00,CLR,,0.00,WeatherDisplay:10.37,2013-10-09 03:30:00,